Regional Weather Roundup
Issued by NWS

Home | Current Version | Previous Version | Text Only | Print | Product List | Glossary Off
Versions: 1 2 3 4 5 6 7 8 9 10 11 12 13 14 15 16 17 18 19 20 21 22 23 24 25 26 27 28 29 30 31 32 33 34 35 36 37 38 39 40 41 42 43 44 45 46 47 48 49 50

000
ASUS43 KIND 240659
RWRIN

WEATHER ROUNDUP FOR INDIANA
NATIONAL WEATHER SERVICE INDIANAPOLIS IN
200 AM EST SAT FEB 24 2018

NOTE: "FAIR" INDICATES FEW OR NO CLOUDS BELOW 12,000 FEET WITH NO
SIGNIFICANT WEATHER AND/OR OBSTRUCTIONS TO VISIBILITY.

* - STATION DOES NOT REPORT WEATHER SUCH AS PRECIPITATION OR FOG.

+ - STATION NOT QUALITY CONTROLLED BY THE NATIONAL WEATHER SERVICE.
    USE DATA WITH CAUTION...ESPECIALLY DEWPOINT AND RELATIVE
    HUMIDITY OBSERVATIONS.

INZ001>003-010>013-019-020-240800-
NORTHWEST INDIANA

CITY           SKY/WX    TMP DP  RH WIND       PRES   REMARKS
MONTICELLO +   CLOUDY    37  35  92 N8        30.23F WCI  30

$$

LMZ046-743>745-240800-
SOUTHERN LAKE MICHIGAN

STATION/POSITION TIME  TEMP    WIND        PRES    WAVE
                       AIR SEA DIR/SP/G            HT
                 (UTC) (F)     (DEG/KT/KT) (MB)    (FT)
BURNS HARBOR     0640   35     360/ 10/ 13 1024.7F
MICHIGAN CITY    0630   34     340/ 11/ 12   N/A

$$

INZ004-005-014>016-021>024-240800-
NORTH CENTRAL INDIANA

CITY           SKY/WX    TMP DP  RH WIND       PRES   REMARKS
GOSHEN         CLOUDY    37  32  82 N10       30.24F WCI  30
PERU/GRISSOM   LGT RAIN  38  38 100 N8        30.23R WCI  32
SOUTH BEND     CLOUDY    36  31  82 N8        30.24F WCI  30
WARSAW +       CLOUDY    36  34  93 N5        30.24R WCI  32

$$

INZ006>009-017-018-025>027-240800-
NORTHEAST INDIANA

CITY           SKY/WX    TMP DP  RH WIND       PRES   REMARKS
AUBURN +       CLOUDY    37  34  87 N8        30.23S WCI  31
FORT WAYNE     CLOUDY    41  38  89 NW5       30.23S
KENDALLVILLE + CLOUDY    36  34  94 N10       30.22F WCI  28

$$

INZ028-029-035-036-043>045-051>053-240800-
WEST CENTRAL INDIANA

CITY           SKY/WX    TMP DP  RH WIND       PRES   REMARKS
GREENCASTLE +  LGT RAIN  41  39  93 NE7       30.21S
LAFAYETTE      CLOUDY    37  36  96 N6        30.23F WCI  32
TERRE HAUTE    LGT RAIN  42  41  96 N6        30.20F

$$

INZ030>032-037>040-046>048-054>057-064-065-240800-
CENTRAL INDIANA

CITY           SKY/WX    TMP DP  RH WIND       PRES   REMARKS
INDIANAPOLIS   LGT RAIN  43  42  97 NE6       30.21F
-EAGLE CREEK   LGT RAIN  43  40  89 NE3       30.21F
KOKOMO +       LGT RAIN  39  38  96 N8        30.24R FOG     WCI  33
MT COMFORT *+  CLOUDY    43  43 100 CALM      30.23S
SHELBYVILLE    LGT RAIN  46  42  86 N8        30.22R

$$

INZ033-034-041-042-049-050-058-059-240800-
EAST CENTRAL INDIANA

CITY           SKY/WX    TMP DP  RH WIND       PRES   REMARKS
MUNCIE         LGT RAIN  44  41  89 NW5       30.23R
RICHMOND +     CLOUDY    45  45 100 N10       30.20S FOG

$$

INZ060-061-067>069-081>083-085>088-240800-
SOUTHWEST INDIANA

CITY           SKY/WX    TMP DP  RH WIND       PRES   REMARKS
EVANSVILLE     CLOUDY    49  48  97 N7        30.18F
HUNTINGBURG +  LGT RAIN  49  48  97 NW3       30.19S

$$

INZ062-063-066-070>080-084-089>092-240800-
SOUTH CENTRAL AND SOUTHEAST INDIANA

CITY           SKY/WX    TMP DP  RH WIND       PRES   REMARKS
BLOOMINGTON    LGT RAIN  46  44  93 NE7       30.18F
FRENCH LICK *+ CLOUDY    46 N/A N/A CALM      30.19R
MADISON *+     CLOUDY    50  50 100 CALM      30.20R
SEYMOUR +      CLOUDY    50  48  93 N10       30.17F

$$





USA.gov is the U.S. government's official web portal to all federal, state and local government web resources and services.